Baltimore Martin, MD

7:24 PM EDT on August 20, 2017 (GMT -0400)
Martin State

Weather History for KMTN - May, 2013

Change the Weather History Date:

Tuesday, May 28, 2013

  Actual Average Record
Temperature  
Mean Temperature 67 °F -  
Max Temperature 75 °F 72 °F 86 °F (2006)
Min Temperature 59 °F 56 °F 44 °F (1997)
Cooling Degree Days 2    
Growing Degree Days 17 (Base 50)    
Moisture  
Dew Point 60 °F    
Average Humidity 86    
Maximum Humidity 100    
Minimum Humidity 69    
Precipitation  
Precipitation 0.00 in - - ()
Sea Level Pressure  
Sea Level Pressure 30.17 in    
Wind  
Wind Speed 1 mph (East)    
Max Wind Speed 10 mph    
Max Gust Speed -    
Visibility 8 miles    
Events Rain    
Averages and records for this station are not official NWS values.
T = Trace of Precipitation, MM = Missing Value Source: NWS Daily Summary

Daily Weather History Graph

Daily Weather History Graph

Search for Another Location

Airport or City:

Trip Planner

Search our weather history database for the weather conditions in past years. The results will help you decide how hot, cold, wet, or windy it might be!

Date:

Astronomy

May. 28, 2013 Rise Set
Actual Time 5:42 AM EDT 8:23 PM EDT
Civil Twilight 5:11 AM EDT 8:55 PM EDT
Nautical Twilight 4:32 AM EDT 9:34 PM EDT
Astronomical Twilight 3:47 AM EDT 10:18 PM EDT
Moon 11:46 PM EDT (5/28) 9:27 AM EDT (5/28)
Length of Visible Light 15h 43m
Length of Day
14h 41m
Waning Gibbous, 83% of the Moon is Illuminated
May 28
Waning Gibbous
May 31
Last Quarter
Jun 8
New
Jun 16
First Quarter
Jun 23
Full

Hourly Weather History & Observations

Time (EDT) Temp. Dew Point Humidity Pressure Visibility Wind Dir Wind Speed Gust Speed Precip Events Conditions
12:15 AM 60.8 °F 55.4 °F 82% 30.22 in 10.0 mi Calm Calm - N/A   Scattered Clouds
12:33 AM 60.8 °F 55.4 °F 82% 30.22 in 10.0 mi Calm Calm - N/A   Scattered Clouds
12:54 AM 60.8 °F 55.4 °F 82% 30.21 in 10.0 mi ENE 3.5 mph - N/A   Mostly Cloudy
1:15 AM 60.8 °F 55.4 °F 82% 30.22 in 10.0 mi Calm Calm - N/A   Scattered Clouds
1:36 AM 60.8 °F 55.4 °F 82% 30.22 in 10.0 mi Calm Calm - N/A   Clear
1:54 AM 60.8 °F 55.4 °F 82% 30.22 in 10.0 mi Calm Calm - N/A   Clear
2:15 AM 60.8 °F 53.6 °F 77% 30.21 in 10.0 mi Calm Calm - N/A   Scattered Clouds
2:36 AM 60.8 °F 53.6 °F 77% 30.20 in 10.0 mi Calm Calm - N/A   Clear
2:54 AM 60.8 °F 53.6 °F 77% 30.21 in 10.0 mi Calm Calm - N/A   Clear
3:15 AM 59.0 °F 55.4 °F 88% 30.20 in 10.0 mi Calm Calm - N/A   Scattered Clouds
3:36 AM 59.0 °F 55.4 °F 88% 30.19 in 10.0 mi Calm Calm - N/A   Scattered Clouds
3:54 AM 59.0 °F 55.4 °F 88% 30.18 in 10.0 mi Calm Calm - N/A   Mostly Cloudy
4:15 AM 59.0 °F 55.4 °F 88% 30.18 in 10.0 mi Calm Calm - N/A   Scattered Clouds
4:36 AM 59.0 °F 55.4 °F 88% 30.18 in 10.0 mi Calm Calm - N/A   Mostly Cloudy
4:54 AM 59.0 °F 55.4 °F 88% 30.18 in 10.0 mi Calm Calm - N/A   Scattered Clouds
5:15 AM 60.8 °F 55.4 °F 82% 30.18 in 10.0 mi Calm Calm - N/A   Mostly Cloudy
5:30 AM 59.0 °F 55.4 °F 88% 30.18 in 10.0 mi Calm Calm - N/A   Mostly Cloudy
5:50 AM 60.8 °F 57.2 °F 88% 30.19 in 10.0 mi Calm Calm - N/A   Mostly Cloudy
6:45 AM 60.8 °F 57.2 °F 88% 30.20 in 10.0 mi Calm Calm - N/A   Overcast
7:45 AM 62.6 °F 60.8 °F 94% 30.18 in 10.0 mi ENE 5.8 mph - N/A   Overcast
8:45 AM 64.4 °F 60.8 °F 88% 30.20 in 10.0 mi ENE 4.6 mph - N/A   Overcast
9:45 AM 64.4 °F 62.6 °F 94% 30.18 in 7.0 mi East 4.6 mph - N/A   Light Drizzle
10:55 AM 66.2 °F 62.6 °F 88% 30.20 in 5.0 mi East 4.6 mph - N/A   Drizzle
11:50 AM 68.0 °F 62.6 °F 83% 30.18 in 7.0 mi East 9.2 mph - N/A   Overcast
12:50 PM 69.8 °F 62.6 °F 78% 30.16 in 7.0 mi SE 10.4 mph - N/A   Overcast
1:45 PM 69.8 °F 62.6 °F 78% 30.16 in 7.0 mi SE 9.2 mph - N/A   Overcast
2:45 PM 69.8 °F 64.4 °F 83% 30.15 in 7.0 mi SE 5.8 mph - N/A   Overcast
3:45 PM 71.6 °F 64.4 °F 78% 30.14 in 7.0 mi East 3.5 mph - N/A   Overcast
4:45 PM 75.2 °F 64.4 °F 69% 30.12 in 7.0 mi East 4.6 mph - N/A   Mostly Cloudy
5:45 PM 73.4 °F 66.2 °F 78% 30.11 in 7.0 mi East 3.5 mph - N/A   Mostly Cloudy
6:50 PM 71.6 °F 66.2 °F 83% 30.10 in 7.0 mi ENE 6.9 mph - N/A   Mostly Cloudy
7:55 PM 69.8 °F 64.4 °F 83% 30.10 in 1.5 mi SSW 3.5 mph - N/A Rain Rain
8:50 PM 68.0 °F 66.2 °F 94% 30.10 in 4.0 mi ENE 3.5 mph - N/A Rain Light Rain
10:18 PM 66.2 °F 66.2 °F 100% 30.12 in 5.0 mi Calm Calm - N/A   Overcast
10:36 PM 66.2 °F 66.2 °F 100% 30.12 in 5.0 mi Calm Calm - N/A   Overcast
10:57 PM 64.4 °F 64.4 °F 100% 30.12 in 2.5 mi Calm Calm - N/A   Scattered Clouds
11:18 PM 64.4 °F 64.4 °F 100% 30.11 in 1.0 mi Calm Calm - N/A   Mist
11:36 PM 64.4 °F 64.4 °F 100% 30.12 in 0.8 mi Calm Calm - N/A   Mostly Cloudy
11:57 PM 64.4 °F 64.4 °F 100% 30.11 in 2.5 mi Calm Calm - N/A   Overcast